Weather History for Springfield, IL

Change the Weather History Date:

Monday, January 20, 2014

  Actual Average Record
Temperature  
Mean Temperature 37 °F 26 °F  
Max Temperature 44 °F 35 °F 71 °F (1906)
Min Temperature 29 °F 18 °F -21 °F (1985)
Degree Days  
Heating Degree Days 28 38  
Month to date heating degree days 838 767  
Since 1 July heating degree days 3184 2907  
Cooling Degree Days 0 0  
Month to date cooling degree days 0 0  
Year to date cooling degree days 0 0  
Moisture  
Dew Point 28 °F    
Average Humidity 71    
Maximum Humidity 89    
Minimum Humidity 53    
Precipitation  
Precipitation 0.10 in 0.05 in 1.55 in (1898)
Month to date precipitation 2.03 1.22  
Year to date precipitation 2.03 1.22  
Snow  
Snow 0.40 in 0.20 in 5.60 in (1922)
Month to date snowfall 15.0 4.1  
Since 1 July snowfall 23.9 10.3  
Snow Depth 0.00 in    
Sea Level Pressure  
Sea Level Pressure 29.90 in    
Wind  
Wind Speed 8 mph (NW)    
Max Wind Speed 24 mph    
Max Gust Speed 32 mph    
Visibility 8 miles    
Events Rain , Snow    
T = Trace of Precipitation, MM = Missing Value Source: NWS Daily Summary

Daily Weather History Graph

Daily Weather History Graph

Search for Another Location

Airport:

Trip Planner

Search our weather history database for the weather conditions in past years. The results will help you decide how hot, cold, wet, or windy it might be!

Date:

Astronomy

Jan. 20, 2014 Rise Set
Actual Time 7:15 AM CST 5:04 PM CST
Civil Twilight 6:46 AM CST 5:33 PM CST
Nautical Twilight 6:13 AM CST 6:06 PM CST
Astronomical Twilight 5:41 AM CST 6:38 PM CST
Moon 9:38 PM CST (1/20) 9:16 AM CST (1/20)
Length of Visible Light 10h 46m
Length of Day
9h 48m
Waning Gibbous, 82% of the Moon is Illuminated
Jan 20
Waning Gibbous
Jan 23
Last Quarter
Jan 30
New
Feb 6
First Quarter
Feb 14
Full

Hourly Weather History & Observations

Time (CST) Temp. Windchill Dew Point Humidity Pressure Visibility Wind Dir Wind Speed Gust Speed Precip Events Conditions
12:52 AM 37.9 °F 30.5 °F 28.0 °F 68% 29.73 in 10.0 mi West 11.5 mph - N/A   Clear
1:52 AM 39.9 °F 34.5 °F 28.0 °F 63% 29.75 in 10.0 mi WNW 8.1 mph - N/A   Clear
2:52 AM 39.9 °F 32.5 °F 28.9 °F 65% 29.80 in 10.0 mi NW 12.7 mph - N/A   Clear
3:52 AM 37.0 °F 30.4 °F 28.9 °F 73% 29.82 in 10.0 mi NW 9.2 mph - N/A   Clear
4:52 AM 35.1 °F 28.6 °F 28.0 °F 76% 29.85 in 10.0 mi NNW 8.1 mph - N/A   Clear
5:52 AM 32.0 °F 25.6 °F 27.0 °F 82% 29.88 in 10.0 mi West 6.9 mph - N/A   Clear
6:52 AM 30.0 °F 24.1 °F 26.1 °F 85% 29.91 in 10.0 mi West 5.8 mph - N/A   Clear
7:52 AM 32.0 °F 26.4 °F 27.0 °F 82% 29.91 in 10.0 mi West 5.8 mph - N/A   Clear
8:52 AM 36.0 °F 29.0 °F 28.0 °F 73% 29.93 in 10.0 mi West 9.2 mph - N/A   Clear
9:52 AM 39.0 °F 32.8 °F 28.9 °F 67% 29.94 in 10.0 mi West 9.2 mph - N/A   Clear
10:52 AM 41.0 °F 34.7 °F 28.9 °F 62% 29.95 in 10.0 mi NW 10.4 mph - N/A   Clear
11:52 AM 43.0 °F 37.2 °F 28.0 °F 56% 29.93 in 10.0 mi NW 10.4 mph 17.3 mph N/A   Clear
12:52 PM 43.0 °F 37.7 °F 28.0 °F 56% 29.92 in 10.0 mi NNW 9.2 mph - N/A   Clear
1:52 PM 44.1 °F 38.6 °F 28.0 °F 53% 29.92 in 10.0 mi NNW 10.4 mph - N/A   Clear
2:52 PM 43.0 °F 37.2 °F 28.0 °F 56% 29.92 in 10.0 mi NW 10.4 mph - N/A   Clear
3:52 PM 39.9 °F 33.4 °F 28.0 °F 63% 29.96 in 10.0 mi NNW 10.4 mph - N/A   Mostly Cloudy
4:52 PM 37.9 °F 35.5 °F 28.0 °F 68% 29.96 in 10.0 mi NNW 3.5 mph - N/A   Partly Cloudy
5:52 PM 37.0 °F - 28.0 °F 70% 29.96 in 10.0 mi Calm Calm - N/A   Clear
6:52 PM 33.1 °F - 27.0 °F 78% 29.96 in 10.0 mi Calm Calm - N/A   Overcast
7:52 PM 33.1 °F - 27.0 °F 78% 29.95 in 10.0 mi Calm Calm - N/A   Overcast
8:52 PM 34.0 °F - 28.0 °F 79% 29.94 in 10.0 mi Calm Calm - N/A   Overcast
9:37 PM 33.8 °F - 30.2 °F 87% 29.90 in 8.0 mi Calm Calm - 0.00 in Rain Light Rain
9:52 PM 35.1 °F 30.1 °F 30.0 °F 82% 29.92 in 5.0 mi WSW 5.8 mph - 0.01 in Snow Light Snow
10:04 PM 33.8 °F - 30.2 °F 87% 29.89 in 2.5 mi Calm Calm - 0.02 in Snow Light Snow
10:14 PM 33.8 °F - 30.2 °F 87% 29.89 in 2.0 mi Calm Calm - 0.03 in Snow Light Snow
10:28 PM 33.8 °F 30.8 °F 30.2 °F 87% 29.89 in 4.0 mi East 3.5 mph - 0.03 in Snow Light Snow
10:52 PM 33.1 °F 25.5 °F 30.9 °F 92% 29.91 in 4.0 mi NE 9.2 mph - 0.03 in   Overcast
11:34 PM 32.0 °F 21.6 °F 28.4 °F 87% 29.92 in 2.5 mi North 15.0 mph - 0.00 in Snow Light Snow
11:43 PM 32.0 °F 22.5 °F 28.4 °F 87% 29.91 in 3.0 mi NNE 12.7 mph 23.0 mph 0.00 in Snow Light Snow
11:52 PM 32.0 °F 19.8 °F 28.9 °F 88% 29.93 in 2.5 mi North 20.7 mph 29.9 mph 0.00 in Snow Light Snow